Starlink 3884

operational
NORAD ID: 52497 Int'l Des: 2022-049 Owner: SPXS Country: US Constellation: starlink
LEOCIRCULAR

关于 Starlink 3884

正在加载描述...

实时位置

正在加载3D地球...

即将过境

高度历史

Altitude vs Time

uPlot chart will show altitude changes over time

两行轨道根数

1 52497U 22049AY 25259.00926627 .00001534 00000-0 11449-3 0 9994
2 52497 53.2165 113.2928 0001396 84.8302 275.2850 15.08828370186029
Epoch: Sep 16, 2025 • Age: 15 hours

当前状态

高度 546.5 km
速度 7.59 km/s
星下点 -21.96°S, 80.37°E
发射日期 May 6, 2022
运行时间 3.3 years
类型 internet

技术详情

分类 Payload
质量 297.00 kg
干质量 220.00 kg
总质量 297.00 kg
长度 0.20 m
直径 2.80 m
跨度 9.00 m
形状 Box + pan
制造商 SPXS
平台类型 Starlink
阶段状态 In Orbit
所有者/国家 SPXS/US

大型星座

Loading constellations...